Regional Weather Roundup
Issued by NWS

Home | Current Version | Previous Version | Graphics & Text | Print | Product List | Glossary On
Versions: 1 2 3 4 5 6 7 8 9 10 11 12 13 14 15 16 17 18 19 20 21 22 23 24 25 26 27 28 29 30 31 32 33 34 35 36 37 38 39 40 41 42 43 44 45 46 47 48 49 50
969
ASUS44 KLIX 230501
RWRLA
LOUISIANA WEATHER ROUNDUP
NATIONAL WEATHER SERVICE NEW ORLEANS LA
1200 AM CDT TUE SEP 23 2014

NOTE: "FAIR" INDICATES FEW OR NO CLOUDS BELOW 12,000 FEET WITH NO
      SIGNIFICANT WEATHER AND/OR OBSTRUCTIONS TO VISIBILITY.
      SKY/WX - SKY CONDITION AND SIGNIFICANT WEATHER.
      TMP - AIR TEMPERATURE.    DP   - DEWPOINT TEMPERATURE.
      RH  - RELATIVE HUMIDITY.  PRES - PRESSURE.
      HX  - HEAT INDEX.         WCI  - WIND CHILL INDEX.

*  THESE STATIONS ARE NOT NWS OR FAA STATIONS AND ARE NOT UNDER
   NWS QUALITY CONTROL.

LAZ040-048-061>063-065-066-069-230600-
SOUTHEAST LOUISIANA

CITY           SKY/WX    TMP DP  RH WIND       PRES   REMARKS
N.O. AUDUBON     N/A     78  59  52 MISG        N/A
N.O. INTL ARPT CLEAR     78  56  46 NE17G25   30.04F
N.O. LAKEFRONT CLEAR     78  61  55 NE26      30.05S
N.O. DOWNTOWN* FAIR      79  55  44 N6G17     30.04F
SLIDELL        CLEAR     65  57  75 N5        30.06S
BATON ROUGE    CLEAR     65  57  75 CALM      30.08F
BOOTHVILLE     CLEAR     82  66  58 NE12      30.02S
BELLE CHASSE   CLEAR     75  55  49 NE10      30.03F
BOGALUSA*        N/A     62  55  78 N3        30.10S
GALLIANO*      NOT AVBL
NEW ROADS*     FAIR      65  57  75 NE3       30.09S
GONZALES*      FAIR      69  60  73 CALM      30.06S
HAMMOND*       NOT AVBL
HOUMA*         CLEAR     69  54  60 N6        30.04S
PORT FOURCHON* CLEAR     81  64  57 NE13G23   30.05S

$$

LAZ041-044-053-054-230600-
SOUTHWEST LOUISIANA

CITY           SKY/WX    TMP DP  RH WIND       PRES   REMARKS
LAKE CHARLES   CLEAR     70  58  65 NE10      30.08
LAFAYETTE      CLEAR     67  57  70 NE6       30.07F
PATTERSON      CLEAR     70  63  78 NE7       30.07F
SALT POINT       N/A     74  64  71 VRB3      30.04F
NEW IBERIA     CLEAR     71  59  65 NE10      30.07S
CHENAULT AIRPK CLEAR     67  59  74 N6        30.09S

$$

LAZ027-028-230600-
CENTRAL LOUISIANA

CITY           SKY/WX    TMP DP  RH WIND       PRES   REMARKS
FORT POLK      NOT AVBL
ALEXANDRIA INT CLEAR     66  54  65 NE5       30.10S
ALEXANDRIA     CLEAR     65  55  70 VRB5      30.12R

$$

LAZ001-002-230600-
NORTHWEST LOUISIANA

CITY           SKY/WX    TMP DP  RH WIND       PRES   REMARKS
SHREVEPORT     CLEAR     68  55  63 NE6       30.16R
BARKSDALE AFB  CLEAR     63  55  74 NE2       30.16S HAZE
DTN SHREVEPORT CLEAR     66  56  70 N5        30.16S

$$

LAZ014-016-230600-
NORTHEAST LOUISIANA

CITY           SKY/WX    TMP DP  RH WIND       PRES   REMARKS
MONROE         CLEAR     66  53  63 NE7       30.15S
TALLULAH       CLEAR     66  55  67 NE10      30.13F

$$




USA.gov is the U.S. government's official web portal to all federal, state and local government web resources and services.